Flag for U.S.A. Weather past 2 weeks in Orlando, Florida, U.S.A.

Now
91 °F

Scattered clouds.


Feels Like: 96 °F
Forecast: 74 / 91 °F
Wind: 6 mph from East

Location: Orlando Executive Airport

Current Time: Sep 2, 2014 at 2:28:49 PM

Latest Report: Sep 2, 2014 at 1:53 PM


Visibility: 10 mi

Pressure: 30.08 "Hg

Humidity: 49%

Dew point: 69 °F

Location of OrlandoLocation

Historic Weather in Orlando — Graph

°F

Orlando temperature yesterday

Maximum temperature yesterday: 94 °F (at 3:53 PM)
Minimum temperature yesterday: 77 °F (at 5:53 AM)
Average temperature yesterday: 84 °F

Past Weeks' High & Low Weather Summary

 TemperatureHumidityPressure
High97 °F (Aug 22, 4:53 PM)94% (Aug 19, 7:53 AM)30.16 "Hg (Aug 19, 7:53 AM)
Low75 °F (Aug 28, 6:53 AM)43% (Aug 22, 4:53 PM)29.78 "Hg (Aug 24, 3:53 PM)
Average84 °F71%30.01 "Hg
* Reported Aug 18 12:53 PM — Sep 2 12:53 PM, Orlando, Weather by CustomWeather, © 2014

Note: Actual official high and low records may vary slightly from our data, if they occured in-between our weather recording intervals... More about our weather records

Advertising

Orlando weather history for previous 24 hours

 ConditionsComfort  
Time TempWeatherWind HumidityBarometerVisibility
12:53 PM
Sep 2
92 °FPassing clouds.5 mph47%30.09 "Hg10 mi
11:53 AM90 °FBroken clouds.3 mph56%30.11 "Hg10 mi
10:53 AM87 °FSunny.No wind59%30.12 "Hg10 mi
9:53 AM86 °FSunny.No wind65%30.11 "Hg10 mi
8:53 AM83 °FSunny.3 mph77%30.10 "Hg10 mi
7:53 AM80 °FClear.No wind81%30.09 "Hg10 mi
6:53 AM78 °FClear.No wind87%30.07 "Hg10 mi
5:53 AM77 °FClear.5 mph88%30.04 "Hg10 mi
4:53 AM79 °FClear.No wind84%30.05 "Hg10 mi
3:53 AM79 °FPassing clouds.3 mph88%30.06 "Hg10 mi
2:53 AM79 °FPassing clouds.3 mph84%30.08 "Hg10 mi
1:53 AM80 °FPassing clouds.No wind81%30.11 "Hg10 mi
12:53 AM79 °FClear.No wind84%30.11 "Hg10 mi
11:53 PM
Sep 1
80 °FClear.3 mph81%30.11 "Hg10 mi
10:53 PM81 °FClear.5 mph79%30.12 "Hg10 mi
9:53 PM82 °FClear.7 mph74%30.10 "Hg10 mi
8:53 PM83 °FClear.8 mph70%30.08 "Hg10 mi
7:53 PM86 °FPassing clouds.7 mph63%30.06 "Hg10 mi
6:53 PM86 °FMostly cloudy.8 mph67%30.06 "Hg10 mi
5:53 PM90 °FMostly cloudy.12 mph54%30.04 "Hg10 mi
4:53 PM90 °FSunny.9 mph56%30.05 "Hg10 mi
3:53 PM94 °FScattered clouds.10 mph51%30.06 "Hg10 mi
2:53 PM91 °FPartly sunny.3 mph49%30.09 "Hg10 mi
Weather by CustomWeather, © 2014

See weather overviewHow to use our weather pages